Lima, OH

10:37 PM EDT on August 29, 2016 (GMT -0400)
Lima Allen County

Weather History for KAOH - November, 2012

Change the Weather History Date:

Sunday, November 4, 2012

  Actual Average (KFDY) Record (KFDY)
Temperature  
Mean Temperature 34 °F -  
Max Temperature 39 °F 51 °F 77 °F (2003)
Min Temperature 28 °F 37 °F 16 °F (1951)
Degree Days  
Heating Degree Days 32    
Moisture  
Dew Point 28 °F    
Average Humidity 75    
Maximum Humidity 89    
Minimum Humidity 65    
Precipitation  
Precipitation 0.00 in - - ()
Sea Level Pressure  
Sea Level Pressure 30.17 in    
Wind  
Wind Speed 4 mph (North)    
Max Wind Speed 8 mph    
Max Gust Speed -    
Visibility 9 miles    
Events      
Averages and records for this station are not official NWS values.
T = Trace of Precipitation, MM = Missing Value Source: NWS Daily Summary

Daily Weather History Graph

Daily Weather History Graph

Search for Another Location

Airport or City:

Trip Planner

Search our weather history database for the weather conditions in past years. The results will help you decide how hot, cold, wet, or windy it might be!

Date:

Astronomy

Nov. 04, 2012 Rise Set
Actual Time 7:10 AM EST 5:28 PM EST
Civil Twilight 6:41 AM EST 5:56 PM EST
Nautical Twilight 6:09 AM EST 6:29 PM EST
Astronomical Twilight 5:37 AM EST 7:01 PM EST
Moon 10:05 PM EST (11/4) 11:53 AM EST (11/4)
Length of Visible Light 11h 15m
Length of Day
10h 17m
Waning Gibbous, 72% of the Moon is Illuminated
Nov 4
Waning Gibbous
Nov 6
Last Quarter
Nov 13
New
Nov 20
First Quarter
Nov 28
Full

Hourly Weather History & Observations

Time (EST) Temp. Windchill Dew Point Humidity Pressure Visibility Wind Dir Wind Speed Gust Speed Precip Events Conditions
12:53 AM 37.0 °F 31.6 °F 30.9 °F 79% 30.17 in 10.0 mi NNW 6.9 mph - N/A   Mostly Cloudy
1:53 AM 35.1 °F 30.1 °F 30.0 °F 82% 30.16 in 10.0 mi North 5.8 mph - N/A   Scattered Clouds
1:53 AM 33.1 °F 30.0 °F 28.9 °F 85% 30.17 in 10.0 mi North 3.5 mph - N/A   Mostly Cloudy
2:53 AM 33.1 °F 30.0 °F 28.9 °F 85% 30.16 in 10.0 mi NE 3.5 mph - N/A   Overcast
3:53 AM 30.0 °F - 27.0 °F 88% 30.15 in 9.0 mi Calm Calm - N/A   Clear
4:53 AM 28.0 °F 24.2 °F 25.0 °F 88% 30.17 in 7.0 mi NW 3.5 mph - N/A   Clear
5:53 AM 30.0 °F - 26.1 °F 85% 30.17 in 5.0 mi Calm Calm - N/A   Clear
6:53 AM 28.0 °F - 25.0 °F 88% 30.18 in 5.0 mi Calm Calm - N/A   Clear
7:53 AM 30.9 °F 27.5 °F 28.0 °F 89% 30.19 in 5.0 mi North 3.5 mph - N/A   Overcast
8:53 AM 33.1 °F 27.7 °F 28.9 °F 85% 30.21 in 8.0 mi North 5.8 mph - N/A   Overcast
9:53 AM 35.1 °F 29.3 °F 28.9 °F 78% 30.20 in 10.0 mi NNE 6.9 mph - N/A   Overcast
10:53 AM 37.0 °F 31.6 °F 30.0 °F 76% 30.20 in 10.0 mi Variable 6.9 mph - N/A   Overcast
11:34 AM 37.4 °F 32.8 °F 30.2 °F 75% 30.17 in 10.0 mi NNW 5.8 mph - N/A   Overcast
11:53 AM 37.9 °F 33.5 °F 30.0 °F 73% 30.19 in 10.0 mi NNW 5.8 mph - N/A   Overcast
12:53 PM 37.9 °F 32.1 °F 28.9 °F 70% 30.19 in 10.0 mi North 8.1 mph - N/A   Overcast
1:31 PM 39.2 °F 35.0 °F 28.4 °F 65% 30.16 in 10.0 mi NNE 5.8 mph - N/A   Mostly Cloudy
1:43 PM 39.2 °F 35.0 °F 28.4 °F 65% 30.15 in 10.0 mi North 5.8 mph - N/A   Overcast
1:53 PM 39.0 °F 35.7 °F 28.9 °F 67% 30.18 in 10.0 mi NE 4.6 mph - N/A   Overcast
2:53 PM 39.0 °F 34.8 °F 28.9 °F 67% 30.17 in 10.0 mi North 5.8 mph - N/A   Mostly Cloudy
3:26 PM 39.2 °F 35.9 °F 28.4 °F 65% 30.14 in 10.0 mi NNW 4.6 mph - N/A   Overcast
3:53 PM 39.0 °F 35.7 °F 28.9 °F 67% 30.17 in 10.0 mi North 4.6 mph - N/A   Overcast
4:53 PM 37.9 °F 34.4 °F 28.0 °F 68% 30.18 in 10.0 mi NNW 4.6 mph - N/A   Overcast
5:18 PM 37.4 °F 34.9 °F 28.4 °F 70% 30.15 in 10.0 mi NNW 3.5 mph - N/A   Overcast
5:53 PM 37.9 °F - 28.0 °F 68% 30.18 in 10.0 mi Calm Calm - N/A   Overcast
6:21 PM 37.4 °F - 28.4 °F 70% 30.15 in 10.0 mi Calm Calm - N/A   Overcast
6:53 PM 37.9 °F - 28.9 °F 70% 30.19 in 10.0 mi Calm Calm - N/A   Overcast
7:41 PM 37.4 °F 33.8 °F 28.4 °F 70% 30.16 in 10.0 mi North 4.6 mph - N/A   Overcast
7:53 PM 37.0 °F 33.3 °F 28.0 °F 70% 30.19 in 10.0 mi NNE 4.6 mph - N/A   Overcast
8:11 PM 37.4 °F 33.8 °F 28.4 °F 70% 30.16 in 10.0 mi NNE 4.6 mph - N/A   Overcast
8:53 PM 36.0 °F 32.1 °F 28.0 °F 73% 30.19 in 10.0 mi North 4.6 mph - N/A   Overcast
9:53 PM 35.1 °F - 26.1 °F 70% 30.19 in 10.0 mi Calm Calm - N/A   Mostly Cloudy
10:53 PM 32.0 °F - 25.0 °F 75% 30.18 in 10.0 mi Calm Calm - N/A   Clear